Weather in Sierra Nevada

Spain     37°05′45″N   3°23′51″W
temp.,
°C
wind,
m/s
gust,
m/s
humid.,
%
clouds,
%
prec.,
mm/h
press.,
hPa
HPBL,
m
20 april, tue
tue2023:00+10nnw3357100 0.0 1018147
02:00+8n32745 0.1 101847
05:00+8n22752 0.0 101618
08:00+8n22720 0.0 101611
11:00+13wnw33495 0.0 10151335
14:00+15wnw3341100 0.0 10141691
17:00+16wnw5440100 0.0 10121723
20:00+12nw4553100 0.0 1013602
21 april, wed
wed2123:00+10nnw3461100 0.0 1015127
02:00+8n337056 0.0 101438
05:00+7n227238 0.0 101328
08:00+7n3266100 0.0 101333
11:00+13wnw2243100 0.0 1013499
14:00+15wnw443664 0.0 10121046
17:00+15w334299 0.0 10101273
20:00+13wnw3458100 0.0 1012554
22 april, thu
thu2223:00+11nnw3365100 0.0 1014137
02:00+10nnw3364100 0.1 1013120
05:00+9nnw1268100 0.0 101239
08:00+9nnw2271100 0.0 101378
11:00+11nw3471100 0.1 1014493
14:00+14wnw56506 0.2 10131614
17:00+16nw564397 0.0 10122065
20:00+14nw344867 0.0 1013913
23 april, fri
fri2323:00+10nne116191 0.0 101522
02:00+10se116561 0.0 101520
05:00+9se2270100 0.0 101421
08:00+9se2380100 0.0 101544
11:00+14s336173 0.0 1015727
14:00+16ssw4360100 0.0 10141214
17:00+13ssw3277100 0.1 1015726
20:00+12s2280100 0.4 1015476
24 april, sat
sat2423:00+11ene348854 0.9 1016168
02:00+11sse238320 0.9 101585
05:00+9ese349299 0.0 1015211
08:00+10e2379100 1.0 101461
11:00+13sse2368100 1.3 1013308
14:00+16s2557100 1.4 10111326
17:00+17ese2448100 0.1 10081111
20:00+14ese3465100 0.7 1008237